Simultaneous Nadir Overpasses (SNOs) Predictions

Prediction of SNOs between AQUA and METOP-A Satellite Orbit:

Table of predicted SNOs for the next 14.0 days since TLE Epoch: 11/15/2013
Index Date (AQUA) Time (AQUA) Lat,Lon (AQUA) SZA (AQUA ) Date (METOP-A) Time (METOP-A) Lat,Lon (METOP-A) SZA (METOP-A ) Distance(km) Time Diff (sec)
1 11/17/2013 20:59:11 -73.78, 39.52 87.14 11/17/2013 20:57:58 -73.80, 39.44 87.11 3.38 73
2 11/17/2013 21:48:40 73.85,-153.00 92.95 11/17/2013 21:48:36 73.87,-153.06 92.97 2.89 4
3 11/17/2013 22:38:07 -73.92, 14.47 86.97 11/17/2013 22:39:17 -73.92, 14.40 86.97 2.15 70
4 11/20/2013 16:33:28 -73.81, 105.88 86.45 11/20/2013 16:32:18 -73.82, 105.90 86.44 1.04 70
5 11/20/2013 17:22:57 73.88, -86.65 93.64 11/20/2013 17:22:56 73.88, -86.60 93.64 1.51 1
6 11/20/2013 18:12:24 -73.96, 80.82 86.28 11/20/2013 18:13:37 -73.94, 80.86 86.30 2.30 73
7 11/23/2013 12:07:43 -73.80, 172.35 85.86 11/23/2013 12:06:38 -73.83, 172.34 85.82 3.42 65
8 11/23/2013 12:57:12 73.88, -20.19 94.24 11/23/2013 12:57:16 73.89, -20.17 94.25 1.90 4
9 11/23/2013 13:46:42 -74.10, 146.94 85.53 11/23/2013 13:47:54 -74.10, 147.66 85.54 22.05 72
10 11/26/2013 07:41:58 -73.84,-121.30 85.26 11/26/2013 07:40:58 -73.83,-121.25 85.27 2.31 60
11 11/26/2013 08:31:26 73.87, 46.26 94.79 11/26/2013 08:31:36 73.89, 46.24 94.81 1.93 10
12 11/26/2013 09:21:00 -74.30,-147.08 84.77 11/26/2013 09:22:09 -74.34,-145.31 84.75 53.47 69
13 11/29/2013 03:16:10 -73.84, -54.85 84.76 11/29/2013 03:15:17 -73.81, -54.86 84.77 2.58 53
14 11/29/2013 04:05:38 73.87, 112.71 95.29 11/29/2013 04:05:55 73.87, 112.62 95.30 2.57 17




NCC Satellite Simultaneous Nadir Overpasses (SNOs) Prediction Service
